Back to catalog

STARLINK-34102

AliveCommunicationsVLEO
NORAD 63806·PAYLOAD·🇺🇸 United States

Launched May 4, 2025 from Cape Canaveral Space Force Station

Loading…

Next Passes (next 24 hours)

TLE

FreshSource: CelesTrak SupGP

Epoch: Sep 14, 2026, 15:25 UTC

1 63806C 25092C   26257.64284722  .00023025  00000+0  83404-3 0  2578
2 63806  43.0007 185.7794 0001476 266.1212 274.2908 15.27563454    13

Track STARLINK-34102 in real time with AllMySat

Download on the App Store